PIMOHWEATHER Station Historical Data
Daily Summary for January 31, 2020 Units:  Metric    English   Both
Daily Weekly Monthly Yearly
  High: Low: Average:
Temperature: 30.0 °C 22.0 °C 25.3 °C
Dew Point: 23.0 °C 20.0 °C 21 °C
Humidity: 91% 60% 77%
Wind Speed: 18km/h 0km/h 7.7km/h
Wind Gust: 24km/h - -
Wind- - SSE
Pressure: 1015.4 hPa 1011.3 hPa -
Precipitation: 0.00 mm    
 
 
Tabular Data for January 31, 2020
Time Temperature Dew Point Pressure Wind Wind Speed Wind Gust Humidity Rainfall Rate (Hourly) solar
00:04 24.0 °C 21.0 °C 1012.3 hPa North 15 km/h 20 km/h 83% 0.00 mm 0.00 W/m2
00:09 24.0 °C 21.0 °C 1012.3 hPa North 15 km/h 16 km/h 83% 0.00 mm 0.00 W/m2
00:14 24.0 °C 21.0 °C 1012.3 hPa North 18 km/h 20 km/h 83% 0.00 mm 0.00 W/m2
00:19 24.0 °C 21.0 °C 1012.2 hPa North 17 km/h 24 km/h 83% 0.00 mm 0.00 W/m2
00:24 24.0 °C 21.0 °C 1012.4 hPa North 18 km/h 20 km/h 83% 0.00 mm 0.00 W/m2
00:29 24.0 °C 21.0 °C 1012.0 hPa North 10 km/h 16 km/h 83% 0.00 mm 0.00 W/m2
00:34 24.0 °C 21.0 °C 1012.0 hPa North 12 km/h 16 km/h 83% 0.00 mm 0.00 W/m2
00:39 24.0 °C 21.0 °C 1012.0 hPa North 10 km/h 16 km/h 83% 0.00 mm 0.00 W/m2
00:44 24.0 °C 21.0 °C 1012.0 hPa North 12 km/h 16 km/h 84% 0.00 mm 0.00 W/m2
00:49 24.0 °C 21.0 °C 1012.0 hPa North 15 km/h 20 km/h 84% 0.00 mm 0.00 W/m2
00:54 24.0 °C 21.0 °C 1012.0 hPa North 15 km/h 20 km/h 84% 0.00 mm 0.00 W/m2
00:59 24.0 °C 21.0 °C 1012.0 hPa North 14 km/h 20 km/h 84% 0.00 mm 0.00 W/m2
01:04 24.0 °C 21.0 °C 1012.0 hPa North 13 km/h 16 km/h 84% 0.00 mm 0.00 W/m2
01:09 24.0 °C 21.0 °C 1011.9 hPa North 9 km/h 12 km/h 84% 0.00 mm 0.00 W/m2
01:14 24.0 °C 21.0 °C 1011.9 hPa NNE 10 km/h 12 km/h 84% 0.00 mm 0.00 W/m2
01:19 24.0 °C 21.0 °C 1012.0 hPa North 12 km/h 16 km/h 84% 0.00 mm 0.00 W/m2
01:24 24.0 °C 21.0 °C 1012.0 hPa North 14 km/h 16 km/h 84% 0.00 mm 0.00 W/m2
01:29 24.0 °C 21.0 °C 1012.0 hPa North 13 km/h 16 km/h 84% 0.00 mm 0.00 W/m2
01:34 24.0 °C 21.0 °C 1011.7 hPa North 12 km/h 16 km/h 84% 0.00 mm 0.00 W/m2
01:39 24.0 °C 21.0 °C 1011.7 hPa North 17 km/h 20 km/h 84% 0.00 mm 0.00 W/m2
01:44 24.0 °C 21.0 °C 1011.7 hPa North 15 km/h 16 km/h 84% 0.00 mm 0.00 W/m2
01:49 24.0 °C 21.0 °C 1011.7 hPa North 9 km/h 12 km/h 84% 0.00 mm 0.00 W/m2
01:54 24.0 °C 21.0 °C 1011.7 hPa North 13 km/h 16 km/h 84% 0.00 mm 0.00 W/m2
01:59 24.0 °C 21.0 °C 1011.7 hPa NNE 10 km/h 12 km/h 84% 0.00 mm 0.00 W/m2
02:04 23.0 °C 21.0 °C 1011.7 hPa North 7 km/h 12 km/h 84% 0.00 mm 0.00 W/m2
02:09 23.0 °C 21.0 °C 1011.7 hPa North 11 km/h 16 km/h 84% 0.00 mm 0.00 W/m2
02:14 23.0 °C 21.0 °C 1011.7 hPa North 12 km/h 16 km/h 85% 0.00 mm 0.00 W/m2
02:19 23.0 °C 21.0 °C 1011.7 hPa North 11 km/h 16 km/h 85% 0.00 mm 0.00 W/m2
02:24 23.0 °C 21.0 °C 1011.7 hPa North 12 km/h 16 km/h 85% 0.00 mm 0.00 W/m2
02:29 23.0 °C 21.0 °C 1011.7 hPa North 11 km/h 16 km/h 85% 0.00 mm 0.00 W/m2
02:34 23.0 °C 21.0 °C 1011.7 hPa North 9 km/h 12 km/h 85% 0.00 mm 0.00 W/m2
02:39 23.0 °C 21.0 °C 1011.6 hPa North 9 km/h 16 km/h 85% 0.00 mm 0.00 W/m2
02:44 23.0 °C 21.0 °C 1011.7 hPa North 12 km/h 16 km/h 86% 0.00 mm 0.00 W/m2
02:49 23.0 °C 21.0 °C 1011.7 hPa North 12 km/h 12 km/h 86% 0.00 mm 0.00 W/m2
02:54 23.0 °C 21.0 °C 1011.6 hPa NNE 12 km/h 16 km/h 86% 0.00 mm 0.00 W/m2
02:59 23.0 °C 21.0 °C 1011.7 hPa NNE 9 km/h 12 km/h 86% 0.00 mm 0.00 W/m2
03:04 23.0 °C 21.0 °C 1011.7 hPa NNE 10 km/h 12 km/h 86% 0.00 mm 0.00 W/m2
03:09 23.0 °C 21.0 °C 1011.7 hPa North 11 km/h 12 km/h 86% 0.00 mm 0.00 W/m2
03:14 23.0 °C 21.0 °C 1011.7 hPa North 5 km/h 8 km/h 86% 0.00 mm 0.00 W/m2
03:19 23.0 °C 21.0 °C 1011.7 hPa NNE 6 km/h 8 km/h 86% 0.00 mm 0.00 W/m2
03:24 23.0 °C 21.0 °C 1011.7 hPa NNE 6 km/h 8 km/h 86% 0.00 mm 0.00 W/m2
03:29 23.0 °C 21.0 °C 1011.6 hPa NNE 4 km/h 8 km/h 86% 0.00 mm 0.00 W/m2
03:34 23.0 °C 21.0 °C 1011.3 hPa NNW 3 km/h 8 km/h 86% 0.00 mm 0.00 W/m2
03:39 23.0 °C 21.0 °C 1011.3 hPa NW 5 km/h 8 km/h 86% 0.00 mm 0.00 W/m2
03:44 23.0 °C 21.0 °C 1011.3 hPa NNE 7 km/h 8 km/h 86% 0.00 mm 0.00 W/m2
03:49 23.0 °C 21.0 °C 1011.3 hPa North 5 km/h 8 km/h 86% 0.00 mm 0.00 W/m2
03:54 23.0 °C 21.0 °C 1011.6 hPa NNE 6 km/h 8 km/h 86% 0.00 mm 0.00 W/m2
03:59 23.0 °C 21.0 °C 1011.6 hPa NNW 5 km/h 8 km/h 86% 0.00 mm 0.00 W/m2
04:04 23.0 °C 21.0 °C 1011.7 hPa NNE 9 km/h 12 km/h 86% 0.00 mm 0.00 W/m2
04:09 23.0 °C 21.0 °C 1011.7 hPa North 5 km/h 8 km/h 86% 0.00 mm 0.00 W/m2
04:14 23.0 °C 21.0 °C 1011.7 hPa NNW 8 km/h 8 km/h 87% 0.00 mm 0.00 W/m2
04:19 23.0 °C 21.0 °C 1011.7 hPa NNW 8 km/h 8 km/h 86% 0.00 mm 0.00 W/m2
04:24 23.0 °C 21.0 °C 1011.7 hPa NNE 6 km/h 8 km/h 86% 0.00 mm 0.00 W/m2
04:29 23.0 °C 21.0 °C 1011.7 hPa North 5 km/h 8 km/h 86% 0.00 mm 0.00 W/m2
04:34 23.0 °C 21.0 °C 1011.7 hPa NNW 4 km/h 8 km/h 87% 0.00 mm 0.00 W/m2
04:39 23.0 °C 21.0 °C 1011.7 hPa NW 5 km/h 8 km/h 87% 0.00 mm 0.00 W/m2
04:44 23.0 °C 21.0 °C 1012.0 hPa NW 5 km/h 8 km/h 87% 0.00 mm 0.00 W/m2
04:49 23.0 °C 21.0 °C 1012.0 hPa NW 5 km/h 8 km/h 87% 0.00 mm 0.00 W/m2
04:54 23.0 °C 21.0 °C 1012.0 hPa NW 5 km/h 8 km/h 87% 0.00 mm 0.00 W/m2
04:59 23.0 °C 21.0 °C 1012.0 hPa NNW 4 km/h 8 km/h 87% 0.00 mm 0.00 W/m2
05:04 23.0 °C 21.0 °C 1012.0 hPa WNW 3 km/h 4 km/h 87% 0.00 mm 0.00 W/m2
05:09 23.0 °C 21.0 °C 1012.2 hPa NW 3 km/h 4 km/h 87% 0.00 mm 0.00 W/m2
05:14 23.0 °C 21.0 °C 1012.4 hPa NW 5 km/h 8 km/h 88% 0.00 mm 0.00 W/m2
05:19 23.0 °C 21.0 °C 1012.4 hPa NW 10 km/h 12 km/h 88% 0.00 mm 0.00 W/m2
05:24 23.0 °C 21.0 °C 1012.4 hPa NW 10 km/h 12 km/h 88% 0.00 mm 0.00 W/m2
05:29 23.0 °C 21.0 °C 1012.6 hPa NW 7 km/h 12 km/h 88% 0.00 mm 0.00 W/m2
05:34 23.0 °C 20.0 °C 1012.7 hPa NNW 8 km/h 8 km/h 88% 0.00 mm 0.00 W/m2
05:39 23.0 °C 20.0 °C 1012.7 hPa NW 12 km/h 16 km/h 88% 0.00 mm 0.00 W/m2
05:44 22.0 °C 20.0 °C 1012.7 hPa NNW 12 km/h 12 km/h 88% 0.00 mm 0.00 W/m2
05:49 22.0 °C 21.0 °C 1012.7 hPa NNW 11 km/h 16 km/h 89% 0.00 mm 0.00 W/m2
05:54 22.0 °C 21.0 °C 1012.9 hPa NNW 13 km/h 16 km/h 89% 0.00 mm 0.00 W/m2
05:59 22.0 °C 21.0 °C 1013.0 hPa NNW 17 km/h 24 km/h 89% 0.00 mm 0.00 W/m2
06:04 22.0 °C 21.0 °C 1013.0 hPa NW 14 km/h 20 km/h 90% 0.00 mm 0.00 W/m2
06:09 22.0 °C 21.0 °C 1013.0 hPa NNW 11 km/h 16 km/h 90% 0.00 mm 0.00 W/m2
06:14 22.0 °C 21.0 °C 1013.4 hPa NNW 15 km/h 20 km/h 90% 0.00 mm 0.00 W/m2
06:19 22.0 °C 21.0 °C 1013.4 hPa North 13 km/h 16 km/h 90% 0.00 mm 0.00 W/m2
06:24 22.0 °C 20.0 °C 1013.6 hPa North 10 km/h 16 km/h 90% 0.00 mm 0.00 W/m2
06:29 22.0 °C 21.0 °C 1013.8 hPa North 14 km/h 16 km/h 91% 0.00 mm 1.20 W/m2
06:34 22.0 °C 21.0 °C 1013.8 hPa North 10 km/h 12 km/h 91% 0.00 mm 3.69 W/m2
06:39 22.0 °C 21.0 °C 1013.8 hPa North 10 km/h 12 km/h 91% 0.00 mm 5.81 W/m2
06:44 22.0 °C 21.0 °C 1013.8 hPa North 9 km/h 12 km/h 91% 0.00 mm 10.02 W/m2
06:49 22.0 °C 21.0 °C 1013.8 hPa North 11 km/h 16 km/h 91% 0.00 mm 14.19 W/m2
06:54 22.0 °C 21.0 °C 1014.1 hPa North 8 km/h 12 km/h 91% 0.00 mm 17.39 W/m2
06:59 22.0 °C 21.0 °C 1014.1 hPa NNW 8 km/h 8 km/h 91% 0.00 mm 20.93 W/m2
07:04 22.0 °C 21.0 °C 1014.3 hPa NNW 5 km/h 8 km/h 91% 0.00 mm 24.78 W/m2
07:09 22.0 °C 21.0 °C 1014.3 hPa NNE 8 km/h 12 km/h 90% 0.00 mm 29.74 W/m2
07:14 22.0 °C 21.0 °C 1014.3 hPa NNE 10 km/h 12 km/h 90% 0.00 mm 36.34 W/m2
07:19 23.0 °C 21.0 °C 1014.1 hPa North 8 km/h 12 km/h 90% 0.00 mm 40.23 W/m2
07:24 23.0 °C 21.0 °C 1014.4 hPa North 7 km/h 12 km/h 89% 0.00 mm 43.79 W/m2
07:29 23.0 °C 21.0 °C 1014.2 hPa North 6 km/h 12 km/h 89% 0.00 mm 49.89 W/m2
07:34 23.0 °C 21.0 °C 1014.4 hPa North 8 km/h 12 km/h 89% 0.00 mm 57.69 W/m2
07:39 23.0 °C 21.0 °C 1014.4 hPa NNE 8 km/h 12 km/h 88% 0.00 mm 63.50 W/m2
07:44 23.0 °C 21.0 °C 1014.4 hPa North 8 km/h 12 km/h 88% 0.00 mm 73.04 W/m2
07:49 23.0 °C 21.0 °C 1014.4 hPa North 9 km/h 12 km/h 87% 0.00 mm 79.15 W/m2
07:52 23.0 °C 21.0 °C 1014.6 hPa North 6 km/h 8 km/h 87% 0.00 mm 79.15 W/m2
07:59 23.0 °C 21.0 °C 1014.4 hPa North 7 km/h 8 km/h 87% 0.00 mm 79.88 W/m2
08:04 23.0 °C 21.0 °C 1014.7 hPa NNW 5 km/h 8 km/h 87% 0.00 mm 76.73 W/m2
08:09 24.0 °C 21.0 °C 1014.7 hPa North 3 km/h 4 km/h 86% 0.00 mm 85.61 W/m2
08:10 23.0 °C 21.0 °C 1014.7 hPa NNE 1 km/h 4 km/h 86% 0.00 mm 85.61 W/m2
08:19 24.0 °C 21.0 °C 1014.7 hPa NNW 5 km/h 8 km/h 85% 0.00 mm 98.97 W/m2
08:20 24.0 °C 21.0 °C 1015.1 hPa NW 5 km/h 8 km/h 85% 0.00 mm 98.97 W/m2
08:28 24.0 °C 21.0 °C 1014.7 hPa NNW 3 km/h 4 km/h 84% 0.00 mm 109.39 W/m2
08:58 25.0 °C 21.0 °C 1015.4 hPa North 5 km/h 8 km/h 80% 0.00 mm 179.88 W/m2
09:06 25.0 °C 21.0 °C 1015.4 hPa NNW 4 km/h 4 km/h 81% 0.00 mm 210.44 W/m2
09:14 26.0 °C 22.0 °C 1015.4 hPa West 5 km/h 8 km/h 80% 0.00 mm 160.90 W/m2
09:19 26.0 °C 22.0 °C 1015.4 hPa North 6 km/h 8 km/h 80% 0.00 mm 156.78 W/m2
09:24 25.0 °C 21.0 °C 1015.4 hPa NNE 4 km/h 4 km/h 80% 0.00 mm 138.34 W/m2
09:29 26.0 °C 22.0 °C 1015.4 hPa North 8 km/h 8 km/h 79% 0.00 mm 128.72 W/m2
09:34 25.0 °C 22.0 °C 1015.4 hPa North 8 km/h 8 km/h 80% 0.00 mm 125.53 W/m2
09:39 25.0 °C 22.0 °C 1015.4 hPa North 5 km/h 12 km/h 80% 0.00 mm 126.32 W/m2
09:44 26.0 °C 22.0 °C 1015.4 hPa North 3 km/h 4 km/h 79% 0.00 mm 132.34 W/m2
09:49 26.0 °C 22.0 °C 1015.4 hPa ESE 4 km/h 8 km/h 78% 0.00 mm 139.12 W/m2
09:53 26.0 °C 22.0 °C 1015.0 hPa ESE 1 km/h 4 km/h 78% 0.00 mm 139.09 W/m2
09:59 26.0 °C 22.0 °C 1015.2 hPa SSE 5 km/h 8 km/h 78% 0.00 mm 130.75 W/m2
10:04 26.0 °C 22.0 °C 1015.0 hPa South 6 km/h 8 km/h 77% 0.00 mm 116.73 W/m2
10:09 26.0 °C 22.0 °C 1015.0 hPa NW 10 km/h 12 km/h 77% 0.00 mm 88.62 W/m2
10:14 26.0 °C 22.0 °C 1015.0 hPa NW 9 km/h 12 km/h 79% 0.00 mm 64.15 W/m2
10:19 26.0 °C 22.0 °C 1015.0 hPa WNW 6 km/h 8 km/h 79% 0.00 mm 64.00 W/m2
10:24 26.0 °C 22.0 °C 1015.0 hPa WNW 10 km/h 12 km/h 79% 0.00 mm 75.81 W/m2
10:29 26.0 °C 22.0 °C 1015.0 hPa WNW 8 km/h 12 km/h 80% 0.00 mm 91.16 W/m2
10:34 26.0 °C 22.0 °C 1015.0 hPa NW 10 km/h 12 km/h 80% 0.00 mm 150.57 W/m2
10:38 26.0 °C 22.0 °C 1015.0 hPa NW 12 km/h 12 km/h 80% 0.00 mm 150.25 W/m2
10:44 26.0 °C 22.0 °C 1015.0 hPa West 6 km/h 12 km/h 79% 0.00 mm 177.33 W/m2
10:46 26.0 °C 22.0 °C 1015.0 hPa SW 6 km/h 12 km/h 77% 0.00 mm 250.52 W/m2
10:54 27.0 °C 22.0 °C 1015.0 hPa NW 15 km/h 16 km/h 78% 0.00 mm 451.28 W/m2
10:59 27.0 °C 22.0 °C 1014.7 hPa NW 15 km/h 16 km/h 75% 0.00 mm 310.22 W/m2
11:04 27.0 °C 22.0 °C 1014.7 hPa NNW 14 km/h 16 km/h 75% 0.00 mm 213.51 W/m2
11:09 27.0 °C 22.0 °C 1014.7 hPa NW 9 km/h 12 km/h 75% 0.00 mm 161.06 W/m2
11:14 27.0 °C 22.0 °C 1014.7 hPa WSW 6 km/h 8 km/h 75% 0.00 mm 165.44 W/m2
11:15 26.0 °C 21.0 °C 1014.3 hPa SW 1 km/h 4 km/h 74% 0.00 mm 165.44 W/m2
11:24 27.0 °C 22.0 °C 1014.7 hPa West 6 km/h 8 km/h 73% 0.00 mm 200.94 W/m2
11:29 27.0 °C 22.0 °C 1014.3 hPa NNW 13 km/h 20 km/h 75% 0.00 mm 186.31 W/m2
11:34 27.0 °C 22.0 °C 1014.6 hPa NW 12 km/h 16 km/h 76% 0.00 mm 168.17 W/m2
11:39 27.0 °C 22.0 °C 1014.3 hPa South 6 km/h 8 km/h 75% 0.00 mm 118.29 W/m2
11:44 27.0 °C 22.0 °C 1014.3 hPa Calm   4 km/h 74% 0.00 mm 100.46 W/m2
11:49 27.0 °C 22.0 °C 1014.3 hPa West 7 km/h 8 km/h 75% 0.00 mm 140.36 W/m2
11:54 27.0 °C 22.0 °C 1014.3 hPa WNW 7 km/h 12 km/h 75% 0.00 mm 178.43 W/m2
11:59 27.0 °C 22.0 °C 1014.2 hPa ESE 4 km/h 4 km/h 75% 0.00 mm 394.48 W/m2
12:04 28.0 °C 23.0 °C 1014.0 hPa SE 5 km/h 8 km/h 73% 0.00 mm 383.79 W/m2
12:09 28.0 °C 22.0 °C 1014.0 hPa WNW 12 km/h 16 km/h 69% 0.00 mm 429.54 W/m2
12:14 28.0 °C 22.0 °C 1014.0 hPa WNW 12 km/h 16 km/h 71% 0.00 mm 348.19 W/m2
12:19 29.0 °C 22.0 °C 1013.7 hPa South 10 km/h 20 km/h 69% 0.00 mm 309.82 W/m2
12:24 28.0 °C 22.0 °C 1013.7 hPa SE 5 km/h 8 km/h 69% 0.00 mm 257.78 W/m2
12:29 28.0 °C 22.0 °C 1013.7 hPa NW 10 km/h 12 km/h 69% 0.00 mm 258.24 W/m2
12:34 28.0 °C 22.0 °C 1013.6 hPa WNW 13 km/h 20 km/h 68% 0.00 mm 214.23 W/m2
12:38 28.0 °C 22.0 °C 1013.6 hPa SW 8 km/h 12 km/h 70% 0.00 mm 127.57 W/m2
12:44 28.0 °C 22.0 °C 1013.3 hPa West 11 km/h 12 km/h 70% 0.00 mm 96.84 W/m2
12:49 28.0 °C 22.0 °C 1013.3 hPa SSW 5 km/h 8 km/h 70% 0.00 mm 101.88 W/m2
12:54 28.0 °C 22.0 °C 1013.3 hPa SSW 5 km/h 8 km/h 71% 0.00 mm 108.29 W/m2
12:58 28.0 °C 22.0 °C 1013.3 hPa Calm   4 km/h 71% 0.00 mm 120.52 W/m2
13:04 28.0 °C 21.0 °C 1013.3 hPa WNW 4 km/h 4 km/h 67% 0.00 mm 166.24 W/m2
13:09 28.0 °C 21.0 °C 1013.3 hPa NW 10 km/h 12 km/h 66% 0.00 mm 204.88 W/m2
13:14 28.0 °C 21.0 °C 1013.3 hPa NNW 10 km/h 12 km/h 67% 0.00 mm 205.74 W/m2
13:19 28.0 °C 21.0 °C 1013.0 hPa NNW 10 km/h 12 km/h 66% 0.00 mm 207.80 W/m2
13:24 28.0 °C 21.0 °C 1013.0 hPa NNW 10 km/h 16 km/h 66% 0.00 mm 248.19 W/m2
13:29 29.0 °C 21.0 °C 1013.0 hPa NNW 6 km/h 8 km/h 65% 0.00 mm 329.62 W/m2
13:33 29.0 °C 21.0 °C 1012.6 hPa NE 10 km/h 12 km/h 64% 0.00 mm 500.50 W/m2
13:39 29.0 °C 21.0 °C 1012.6 hPa NNE 17 km/h 20 km/h 62% 0.00 mm 393.67 W/m2
13:44 30.0 °C 21.0 °C 1012.6 hPa NE 5 km/h 8 km/h 62% 0.00 mm 284.84 W/m2
13:49 30.0 °C 21.0 °C 1012.6 hPa SE 6 km/h 8 km/h 60% 0.00 mm 386.01 W/m2
13:54 30.0 °C 21.0 °C 1012.6 hPa ENE 13 km/h 16 km/h 61% 0.00 mm 239.09 W/m2
13:59 29.0 °C 21.0 °C 1012.6 hPa NE 6 km/h 8 km/h 63% 0.00 mm 162.92 W/m2
14:04 29.0 °C 21.0 °C 1012.6 hPa NE 11 km/h 12 km/h 67% 0.00 mm 151.06 W/m2
14:09 29.0 °C 23.0 °C 1012.6 hPa NNW 11 km/h 12 km/h 71% 0.00 mm 136.77 W/m2
14:14 29.0 °C 23.0 °C 1012.6 hPa SSE 5 km/h 8 km/h 71% 0.00 mm 107.60 W/m2
14:19 29.0 °C 23.0 °C 1012.6 hPa South 10 km/h 12 km/h 72% 0.00 mm 144.65 W/m2
14:24 28.0 °C 23.0 °C 1012.3 hPa SSW 9 km/h 12 km/h 72% 0.00 mm 161.85 W/m2
14:27 28.0 °C 22.0 °C 1012.3 hPa NW 5 km/h 8 km/h 68% 0.00 mm 167.13 W/m2
14:34 28.0 °C 23.0 °C 1012.3 hPa South 10 km/h 12 km/h 71% 0.00 mm 305.66 W/m2
14:39 29.0 °C 22.0 °C 1012.3 hPa WNW 5 km/h 8 km/h 70% 0.00 mm 404.63 W/m2
14:42 28.0 °C 20.0 °C 1012.3 hPa South 5 km/h 8 km/h 63% 0.00 mm 414.69 W/m2
14:49 29.0 °C 23.0 °C 1012.3 hPa SSW 9 km/h 12 km/h 68% 0.00 mm 396.00 W/m2
14:54 29.0 °C 22.0 °C 1011.9 hPa SSW 5 km/h 8 km/h 67% 0.00 mm 286.68 W/m2
14:59 29.0 °C 22.0 °C 1012.3 hPa SSW 7 km/h 8 km/h 66% 0.00 mm 169.72 W/m2
15:04 29.0 °C 22.0 °C 1011.9 hPa SSE 8 km/h 8 km/h 67% 0.00 mm 149.29 W/m2
15:09 29.0 °C 23.0 °C 1011.9 hPa SSE 10 km/h 12 km/h 69% 0.00 mm 296.07 W/m2
15:14 29.0 °C 23.0 °C 1011.9 hPa SSE 13 km/h 16 km/h 70% 0.00 mm 191.61 W/m2
15:19 29.0 °C 23.0 °C 1011.9 hPa SSE 14 km/h 16 km/h 72% 0.00 mm 152.18 W/m2
15:22 29.0 °C 23.0 °C 1011.9 hPa SSE 15 km/h 16 km/h 72% 0.00 mm 204.03 W/m2
15:27 28.0 °C 23.0 °C 1012.3 hPa SSE 10 km/h 16 km/h 71% 0.00 mm 122.82 W/m2
15:34 28.0 °C 22.0 °C 1011.9 hPa SSE 9 km/h 12 km/h 70% 0.00 mm 164.83 W/m2
15:39 28.0 °C 22.0 °C 1011.9 hPa SSE 16 km/h 20 km/h 69% 0.00 mm 185.65 W/m2
15:44 28.0 °C 22.0 °C 1012.1 hPa SE 15 km/h 20 km/h 70% 0.00 mm 243.21 W/m2
15:49 28.0 °C 22.0 °C 1011.9 hPa SSE 9 km/h 12 km/h 69% 0.00 mm 229.99 W/m2
15:54 28.0 °C 22.0 °C 1011.9 hPa SSE 15 km/h 20 km/h 69% 0.00 mm 179.02 W/m2
15:59 28.0 °C 22.0 °C 1011.9 hPa South 10 km/h 16 km/h 69% 0.00 mm 169.58 W/m2
16:00 28.0 °C 22.0 °C 1011.9 hPa SSE 8 km/h 12 km/h 68% 0.00 mm 164.34 W/m2
16:09 29.0 °C 22.0 °C 1011.9 hPa SSE 8 km/h 12 km/h 68% 0.00 mm 183.87 W/m2
16:13 29.0 °C 22.0 °C 1011.9 hPa SE 17 km/h 20 km/h 69% 0.00 mm 173.25 W/m2
16:19 28.0 °C 22.0 °C 1012.3 hPa SE 13 km/h 16 km/h 69% 0.00 mm 177.16 W/m2
16:24 28.0 °C 22.0 °C 1011.9 hPa SSE 5 km/h 12 km/h 69% 0.00 mm 159.99 W/m2
16:27 28.0 °C 22.0 °C 1012.3 hPa South 3 km/h 8 km/h 68% 0.00 mm 142.88 W/m2
16:44 28.0 °C 22.0 °C 1012.3 hPa NNW 8 km/h 8 km/h 69% 0.00 mm 71.53 W/m2
16:49 28.0 °C 21.0 °C 1012.6 hPa NNE 14 km/h 16 km/h 66% 0.00 mm 62.60 W/m2
16:54 28.0 °C 21.0 °C 1012.6 hPa NNE 8 km/h 8 km/h 66% 0.00 mm 37.30 W/m2
16:59 28.0 °C 21.0 °C 1012.6 hPa North 15 km/h 16 km/h 65% 0.00 mm 24.29 W/m2
17:04 28.0 °C 21.0 °C 1012.6 hPa NE 14 km/h 16 km/h 67% 0.00 mm 24.49 W/m2
17:09 28.0 °C 21.0 °C 1012.6 hPa NE 18 km/h 20 km/h 67% 0.00 mm 23.64 W/m2
17:14 28.0 °C 21.0 °C 1012.6 hPa NNE 14 km/h 16 km/h 67% 0.00 mm 18.95 W/m2
17:19 27.0 °C 21.0 °C 1012.6 hPa NE 10 km/h 12 km/h 68% 0.00 mm 18.11 W/m2
17:24 27.0 °C 21.0 °C 1012.6 hPa NNW 5 km/h 8 km/h 68% 0.00 mm 17.33 W/m2
17:29 27.0 °C 21.0 °C 1012.6 hPa NNE 6 km/h 8 km/h 68% 0.00 mm 16.01 W/m2
17:34 27.0 °C 21.0 °C 1012.6 hPa NNE 10 km/h 12 km/h 68% 0.00 mm 13.40 W/m2
17:39 27.0 °C 21.0 °C 1012.6 hPa NNE 10 km/h 12 km/h 68% 0.00 mm 10.40 W/m2
17:44 27.0 °C 21.0 °C 1012.6 hPa NNE 12 km/h 16 km/h 69% 0.00 mm 7.45 W/m2
17:49 27.0 °C 21.0 °C 1012.6 hPa NNE 12 km/h 16 km/h 69% 0.00 mm 4.71 W/m2
17:54 27.0 °C 21.0 °C 1012.6 hPa NNE 12 km/h 12 km/h 69% 0.00 mm 2.34 W/m2
17:59 27.0 °C 21.0 °C 1013.0 hPa NNE 9 km/h 16 km/h 69% 0.00 mm 0.00 W/m2
18:04 27.0 °C 20.0 °C 1013.0 hPa NNE 10 km/h 12 km/h 69% 0.00 mm 0.00 W/m2
18:09 26.0 °C 21.0 °C 1013.0 hPa NE 8 km/h 12 km/h 70% 0.00 mm 0.00 W/m2
18:14 26.0 °C 21.0 °C 1013.0 hPa NNE 13 km/h 16 km/h 70% 0.00 mm 0.00 W/m2
18:19 26.0 °C 20.0 °C 1013.2 hPa ENE 5 km/h 8 km/h 70% 0.00 mm 0.00 W/m2
18:24 26.0 °C 20.0 °C 1013.2 hPa NNE 5 km/h 8 km/h 70% 0.00 mm 0.00 W/m2
18:29 26.0 °C 20.0 °C 1013.3 hPa NNE 10 km/h 16 km/h 70% 0.00 mm 0.00 W/m2
18:34 26.0 °C 20.0 °C 1013.3 hPa NNE 9 km/h 12 km/h 70% 0.00 mm 0.00 W/m2
18:39 26.0 °C 20.0 °C 1013.3 hPa NE 8 km/h 12 km/h 71% 0.00 mm 0.00 W/m2
18:44 26.0 °C 20.0 °C 1013.5 hPa NNE 10 km/h 12 km/h 71% 0.00 mm 0.00 W/m2
18:49 26.0 °C 20.0 °C 1013.7 hPa ENE 5 km/h 8 km/h 71% 0.00 mm 0.00 W/m2
18:54 26.0 °C 20.0 °C 1013.7 hPa ENE 6 km/h 8 km/h 71% 0.00 mm 0.00 W/m2
18:59 26.0 °C 20.0 °C 1013.7 hPa NE 3 km/h 8 km/h 71% 0.00 mm 0.00 W/m2
19:04 26.0 °C 20.0 °C 1013.7 hPa NNE 10 km/h 12 km/h 71% 0.00 mm 0.00 W/m2
19:09 26.0 °C 20.0 °C 1013.8 hPa NE 9 km/h 12 km/h 71% 0.00 mm 0.00 W/m2
19:14 26.0 °C 20.0 °C 1013.7 hPa NE 10 km/h 12 km/h 71% 0.00 mm 0.00 W/m2
19:19 26.0 °C 20.0 °C 1014.0 hPa ESE 4 km/h 4 km/h 71% 0.00 mm 0.00 W/m2
19:24 26.0 °C 20.0 °C 1013.9 hPa NE 4 km/h 8 km/h 72% 0.00 mm 0.00 W/m2
19:29 26.0 °C 20.0 °C 1014.0 hPa ENE 8 km/h 8 km/h 72% 0.00 mm 0.00 W/m2
19:34 26.0 °C 20.0 °C 1014.0 hPa NE 8 km/h 12 km/h 72% 0.00 mm 0.00 W/m2
19:39 26.0 °C 20.0 °C 1014.0 hPa NNE 8 km/h 8 km/h 72% 0.00 mm 0.00 W/m2
19:44 26.0 °C 20.0 °C 1014.0 hPa NNE 8 km/h 8 km/h 72% 0.00 mm 0.00 W/m2
19:49 25.0 °C 20.0 °C 1014.0 hPa NE 8 km/h 12 km/h 72% 0.00 mm 0.00 W/m2
19:54 25.0 °C 20.0 °C 1014.4 hPa NE 6 km/h 12 km/h 72% 0.00 mm 0.00 W/m2
19:59 25.0 °C 20.0 °C 1014.4 hPa NE 8 km/h 12 km/h 72% 0.00 mm 0.00 W/m2
20:04 25.0 °C 20.0 °C 1014.4 hPa NE 8 km/h 8 km/h 73% 0.00 mm 0.00 W/m2
20:09 25.0 °C 20.0 °C 1014.4 hPa ENE 7 km/h 8 km/h 73% 0.00 mm 0.00 W/m2
20:14 25.0 °C 20.0 °C 1014.4 hPa East 1 km/h 4 km/h 73% 0.00 mm 0.00 W/m2
20:19 25.0 °C 20.0 °C 1014.4 hPa SSE 4 km/h 8 km/h 74% 0.00 mm 0.00 W/m2
20:24 25.0 °C 20.0 °C 1014.6 hPa East 3 km/h 8 km/h 74% 0.00 mm 0.00 W/m2
20:29 25.0 °C 20.0 °C 1014.7 hPa Calm   4 km/h 74% 0.00 mm 0.00 W/m2
20:34 25.0 °C 20.0 °C 1014.7 hPa Calm   4 km/h 74% 0.00 mm 0.00 W/m2
20:39 25.0 °C 20.0 °C 1014.7 hPa ESE 3 km/h 4 km/h 74% 0.00 mm 0.00 W/m2
20:44 25.0 °C 20.0 °C 1014.9 hPa Calm     74% 0.00 mm 0.00 W/m2
20:49 25.0 °C 20.0 °C 1014.9 hPa Calm     74% 0.00 mm 0.00 W/m2
20:54 25.0 °C 20.0 °C 1014.9 hPa Calm     74% 0.00 mm 0.00 W/m2
20:59 25.0 °C 20.0 °C 1015.0 hPa ENE 3 km/h 4 km/h 74% 0.00 mm 0.00 W/m2
21:04 25.0 °C 20.0 °C 1014.9 hPa ENE 4 km/h 4 km/h 73% 0.00 mm 0.00 W/m2
21:09 25.0 °C 20.0 °C 1014.7 hPa ENE 1 km/h 4 km/h 73% 0.00 mm 0.00 W/m2
21:14 25.0 °C 20.0 °C 1014.8 hPa East 2 km/h 4 km/h 73% 0.00 mm 0.00 W/m2
21:19 25.0 °C 20.0 °C 1015.0 hPa ESE 3 km/h 4 km/h 73% 0.00 mm 0.00 W/m2
21:24 25.0 °C 20.0 °C 1015.0 hPa East 5 km/h 8 km/h 74% 0.00 mm 0.00 W/m2
21:29 25.0 °C 20.0 °C 1015.0 hPa SE 3 km/h 4 km/h 74% 0.00 mm 0.00 W/m2
21:34 25.0 °C 20.0 °C 1015.0 hPa Calm   4 km/h 74% 0.00 mm 0.00 W/m2
21:39 25.0 °C 20.0 °C 1015.0 hPa Calm   4 km/h 74% 0.00 mm 0.00 W/m2
21:44 25.0 °C 20.0 °C 1015.0 hPa Calm   4 km/h 74% 0.00 mm 0.00 W/m2
21:49 25.0 °C 20.0 °C 1015.0 hPa SE 3 km/h 4 km/h 75% 0.00 mm 0.00 W/m2
21:54 25.0 °C 20.0 °C 1015.0 hPa Calm   4 km/h 75% 0.00 mm 0.00 W/m2
21:59 25.0 °C 20.0 °C 1015.0 hPa Calm     75% 0.00 mm 0.00 W/m2
22:04 25.0 °C 20.0 °C 1015.0 hPa ESE 5 km/h 8 km/h 75% 0.00 mm 0.00 W/m2
22:09 25.0 °C 20.0 °C 1015.2 hPa ESE 1 km/h 4 km/h 74% 0.00 mm 0.00 W/m2
22:14 25.0 °C 20.0 °C 1015.0 hPa SE 5 km/h 8 km/h 74% 0.00 mm 0.00 W/m2
22:19 25.0 °C 20.0 °C 1015.0 hPa SE 8 km/h 8 km/h 74% 0.00 mm 0.00 W/m2
22:24 25.0 °C 20.0 °C 1015.2 hPa ESE 8 km/h 12 km/h 74% 0.00 mm 0.00 W/m2
22:29 25.0 °C 20.0 °C 1015.0 hPa East 4 km/h 8 km/h 74% 0.00 mm 0.00 W/m2
22:34 25.0 °C 20.0 °C 1015.2 hPa ESE 3 km/h 4 km/h 75% 0.00 mm 0.00 W/m2
22:39 25.0 °C 20.0 °C 1015.4 hPa SE 1 km/h 4 km/h 75% 0.00 mm 0.00 W/m2
22:44 25.0 °C 20.0 °C 1015.4 hPa ESE 4 km/h 4 km/h 75% 0.00 mm 0.00 W/m2
22:49 24.0 °C 20.0 °C 1015.4 hPa SE 1 km/h 4 km/h 75% 0.00 mm 0.00 W/m2
22:54 24.0 °C 20.0 °C 1015.4 hPa ESE 1 km/h 4 km/h 75% 0.00 mm 0.00 W/m2
22:59 24.0 °C 20.0 °C 1015.4 hPa SE 3 km/h 4 km/h 75% 0.00 mm 0.00 W/m2
23:04 24.0 °C 20.0 °C 1015.4 hPa ESE 2 km/h 4 km/h 75% 0.00 mm 0.00 W/m2
23:09 24.0 °C 20.0 °C 1015.4 hPa Calm     76% 0.00 mm 0.00 W/m2
23:14 24.0 °C 20.0 °C 1015.4 hPa ESE 3 km/h 4 km/h 76% 0.00 mm 0.00 W/m2
23:19 24.0 °C 20.0 °C 1015.4 hPa East 3 km/h 4 km/h 76% 0.00 mm 0.00 W/m2
23:24 24.0 °C 20.0 °C 1015.4 hPa Calm     76% 0.00 mm 0.00 W/m2
23:29 24.0 °C 20.0 °C 1015.4 hPa ESE 1 km/h 4 km/h 76% 0.00 mm 0.00 W/m2
23:34 24.0 °C 20.0 °C 1015.4 hPa SE 1 km/h 4 km/h 76% 0.00 mm 0.00 W/m2
23:39 24.0 °C 20.0 °C 1015.4 hPa Calm   4 km/h 77% 0.00 mm 0.00 W/m2
23:44 24.0 °C 20.0 °C 1015.4 hPa Calm     77% 0.00 mm 0.00 W/m2
23:49 24.0 °C 20.0 °C 1015.4 hPa Calm   4 km/h 77% 0.00 mm 0.00 W/m2
23:54 24.0 °C 20.0 °C 1015.4 hPa East 1 km/h 4 km/h 77% 0.00 mm 0.00 W/m2
23:59 24.0 °C 20.0 °C 1015.3 hPa East 2 km/h 4 km/h 77% 0.00 mm 0.00 W/m2
PIMOHWEATHER Philippines
Compliments of Weather Underground - 2 mb